When you browse on this site, cookies collect data to enhance your experience and personalize the content and advertising you see.
Visit our Privacy Policy to learn more. By continuing to use the site, you agree to this use of cookies and data.
  • In Switzerland
  • List of Countries
  • For 7 days
  • Water Temperature
  • Weather Map
  • Weather Widgets
  • user-avatar
    Login

    Hourly Weather Manchester

    Today, 18 September, Wednesday

    Time Temperature Precipitation Wind Pressure Humidity
    00:00 +10°C° 0 mm 1 mps 767 mmHg 81%
    01:00 +10°C° 0 mm 1 mps 766 mmHg 82%
    02:00 +10°C° 0 mm 1 mps 766 mmHg 83%
    03:00 +10°C° 0 mm 1 mps 766 mmHg 83%
    04:00 +10°C° 0 mm 1 mps 767 mmHg 84%
    05:00 +9°C° 0 mm 1 mps 767 mmHg 85%
    06:00 +9°C° 0 mm 1 mps 767 mmHg 85%
    07:00 +11°C° 0 mm 1 mps 767 mmHg 81%
    08:00 +12°C° 0 mm 1 mps 767 mmHg 77%
    09:00 +14°C° 0 mm 1 mps 767 mmHg 72%
    10:00 +15°C° 0 mm 1 mps 767 mmHg 67%
    11:00 +16°C° 0 mm 2 mps 767 mmHg 62%
    12:00 +17°C° 0 mm 2 mps 767 mmHg 57%
    13:00 +18°C° 0 mm 2 mps 767 mmHg 58%
    14:00 +18°C° 0 mm 3 mps 767 mmHg 60%
    15:00 +18°C° 0 mm 3 mps 766 mmHg 61%
    16:00 +17°C° 0 mm 3 mps 766 mmHg 66%
    17:00 +15°C° 0 mm 2 mps 766 mmHg 72%
    18:00 +14°C° 0 mm 2 mps 766 mmHg 77%
    19:00 +14°C° 0 mm 2 mps 767 mmHg 80%
    20:00 +13°C° 0 mm 1 mps 767 mmHg 82%
    21:00 +12°C° 0 mm 1 mps 768 mmHg 85%
    22:00 +12°C° 0 mm 1 mps 768 mmHg 86%
    23:00 +12°C° 0 mm 1 mps 768 mmHg 87%

    Tomorrow, 19 September, Thursday

    Time Temperature Precipitation Wind Pressure Humidity
    00:00 +11°C° 0 mm 0 mps 768 mmHg 88%
    01:00 +11°C° 0 mm 0 mps 767 mmHg 88%
    02:00 +11°C° 0 mm 0 mps 767 mmHg 88%
    03:00 +11°C° 0 mm 0 mps 767 mmHg 89%
    04:00 +10°C° 0 mm 0 mps 767 mmHg 89%
    05:00 +10°C° 0 mm 0 mps 767 mmHg 90%
    06:00 +10°C° 0 mm 0 mps 767 mmHg 90%
    07:00 +12°C° 0 mm 0 mps 767 mmHg 86%
    08:00 +13°C° 0 mm 0 mps 768 mmHg 82%
    09:00 +16°C° 0 mm 1 mps 768 mmHg 78%
    10:00 +18°C° 0 mm 1 mps 768 mmHg 73%
    11:00 +19°C° 0 mm 1 mps 768 mmHg 69%
    12:00 +21°C° 0 mm 1 mps 768 mmHg 64%
    13:00 +21°C° 0 mm 1 mps 767 mmHg 63%
    14:00 +21°C° 0 mm 1 mps 767 mmHg 62%
    15:00 +22°C° 0 mm 1 mps 767 mmHg 61%
    16:00 +20°C° 0 mm 1 mps 767 mmHg 66%
    17:00 +19°C° 0 mm 1 mps 767 mmHg 72%
    18:00 +18°C° 0 mm 1 mps 766 mmHg 77%
    19:00 +16°C° 0 mm 1 mps 767 mmHg 80%
    20:00 +15°C° 0 mm 0 mps 767 mmHg 82%
    21:00 +14°C° 0 mm 0 mps 767 mmHg 84%
    22:00 +14°C° 0 mm 0 mps 767 mmHg 85%
    23:00 +13°C° 0 mm 0 mps 767 mmHg 85%

    Day after tomorrow, 20 September, Friday

    Time Temperature Precipitation Wind Pressure Humidity
    00:00 +14°C° 0 mm 1 mps 766 mmHg 86%
    01:00 +14°C° 0 mm 1 mps 766 mmHg 86%
    02:00 +14°C° 0 mm 1 mps 766 mmHg 86%
    03:00 +14°C° 0 mm 1 mps 766 mmHg 86%
    04:00 +13°C° 0 mm 1 mps 765 mmHg 86%
    05:00 +13°C° 0 mm 1 mps 765 mmHg 86%
    06:00 +13°C° 0 mm 1 mps 764 mmHg 86%
    07:00 +14°C° 0 mm 1 mps 764 mmHg 81%
    08:00 +16°C° 0 mm 2 mps 764 mmHg 75%
    09:00 +17°C° 0 mm 2 mps 764 mmHg 70%
    10:00 +18°C° 0 mm 3 mps 764 mmHg 68%
    11:00 +19°C° 0 mm 3 mps 763 mmHg 65%
    12:00 +20°C° 0 mm 4 mps 763 mmHg 62%
    13:00 +20°C° 0 mm 4 mps 762 mmHg 62%
    14:00 +20°C° 0 mm 5 mps 762 mmHg 62%
    15:00 +20°C° 0 mm 5 mps 761 mmHg 62%
    16:00 +19°C° 0 mm 5 mps 760 mmHg 65%
    17:00 +17°C° 0 mm 5 mps 760 mmHg 68%
    18:00 +17°C° 0 mm 4 mps 759 mmHg 71%
    19:00 +15°C° 0 mm 5 mps 759 mmHg 68%
    20:00 +15°C° 0 mm 5 mps 759 mmHg 66%
    21:00 +14°C° 0 mm 6 mps 759 mmHg 63%
    22:00 +14°C° 0 mm 5 mps 759 mmHg 65%
    23:00 +13°C° 0 mm 5 mps 758 mmHg 68%

    21 September, Saturday

    Time Temperature Precipitation Wind Pressure Humidity
    00:00 +12°C° 0 mm 5 mps 758 mmHg 70%
    01:00 +12°C° 0 mm 5 mps 757 mmHg 72%
    02:00 +12°C° 0 mm 5 mps 757 mmHg 75%
    03:00 +12°C° 0 mm 5 mps 756 mmHg 77%
    04:00 +12°C° 0 mm 4 mps 756 mmHg 77%
    05:00 +12°C° 0 mm 4 mps 755 mmHg 77%
    06:00 +11°C° 0 mm 4 mps 754 mmHg 76%
    07:00 +13°C° 0 mm 5 mps 754 mmHg 72%
    08:00 +14°C° 0 mm 5 mps 754 mmHg 67%
    09:00 +15°C° 0 mm 6 mps 753 mmHg 62%
    10:00 +16°C° 0 mm 6 mps 753 mmHg 59%
    11:00 +17°C° 0 mm 6 mps 752 mmHg 57%
    12:00 +20°C° 0 mm 6 mps 752 mmHg 54%
    13:00 +20°C° 0 mm 6 mps 751 mmHg 54%
    14:00 +21°C° 0 mm 6 mps 751 mmHg 55%
    15:00 +21°C° 0 mm 6 mps 750 mmHg 55%
    16:00 +20°C° 0 mm 5 mps 750 mmHg 57%
    17:00 +19°C° 0 mm 5 mps 749 mmHg 60%
    18:00 +17°C° 0 mm 5 mps 749 mmHg 62%
    19:00 +17°C° 0 mm 5 mps 749 mmHg 63%
    20:00 +18°C° 0 mm 4 mps 749 mmHg 65%
    21:00 +17°C° 0 mm 4 mps 749 mmHg 67%
    22:00 +17°C° 0.1 mm 4 mps 748 mmHg 70%
    23:00 +15°C° 0.1 mm 4 mps 748 mmHg 73%

    22 September, Sunday

    Time Temperature Precipitation Wind Pressure Humidity
    00:00 +16°C° 0.1 mm 3 mps 747 mmHg 75%
    01:00 +16°C° 0.3 mm 3 mps 747 mmHg 78%
    02:00 +16°C° 0.3 mm 3 mps 747 mmHg 80%
    03:00 +16°C° 0.3 mm 3 mps 746 mmHg 83%
    04:00 +16°C° 0.4 mm 3 mps 746 mmHg 86%
    05:00 +17°C° 0.4 mm 2 mps 746 mmHg 88%
    06:00 +17°C° 0.4 mm 2 mps 746 mmHg 91%
    07:00 +17°C° 0.2 mm 2 mps 746 mmHg 90%
    08:00 +17°C° 0.2 mm 3 mps 747 mmHg 90%
    09:00 +17°C° 0.2 mm 3 mps 747 mmHg 89%
    10:00 +18°C° 0 mm 3 mps 747 mmHg 83%
    11:00 +19°C° 0 mm 4 mps 747 mmHg 76%
    12:00 +20°C° 0 mm 4 mps 747 mmHg 70%
    13:00 +20°C° 0 mm 4 mps 747 mmHg 67%
    14:00 +20°C° 0 mm 4 mps 747 mmHg 63%
    15:00 +20°C° 0 mm 4 mps 747 mmHg 60%
    16:00 +19°C° 0 mm 4 mps 747 mmHg 64%
    17:00 +18°C° 0 mm 4 mps 747 mmHg 69%
    18:00 +17°C° 0 mm 3 mps 747 mmHg 73%
    19:00 +16°C° 0 mm 3 mps 748 mmHg 76%
    20:00 +14°C° 0 mm 3 mps 748 mmHg 79%
    21:00 +13°C° 0 mm 4 mps 749 mmHg 81%
    22:00 +13°C° 0 mm 4 mps 749 mmHg 81%
    23:00 +12°C° 0 mm 4 mps 749 mmHg 82%

    23 September, Monday

    Time Temperature Precipitation Wind Pressure Humidity
    00:00 +12°C° 0 mm 4 mps 750 mmHg 82%
    01:00 +12°C° 0 mm 4 mps 750 mmHg 83%
    02:00 +11°C° 0 mm 3 mps 750 mmHg 84%
    03:00 +11°C° 0 mm 3 mps 750 mmHg 86%
    04:00 +11°C° 0 mm 3 mps 750 mmHg 86%
    05:00 +10°C° 0 mm 3 mps 750 mmHg 87%
    06:00 +10°C° 0 mm 2 mps 751 mmHg 88%
    07:00 +11°C° 0 mm 3 mps 751 mmHg 83%
    08:00 +13°C° 0 mm 3 mps 751 mmHg 79%
    09:00 +14°C° 0 mm 3 mps 751 mmHg 74%
    10:00 +15°C° 0 mm 4 mps 750 mmHg 72%
    11:00 +16°C° 0 mm 5 mps 750 mmHg 70%
    12:00 +17°C° 0 mm 5 mps 750 mmHg 68%
    13:00 +16°C° 0.3 mm 5 mps 749 mmHg 74%
    14:00 +17°C° 0.3 mm 4 mps 749 mmHg 80%
    15:00 +15°C° 0.3 mm 4 mps 748 mmHg 86%
    16:00 +15°C° 0.4 mm 4 mps 748 mmHg 88%
    17:00 +15°C° 0.4 mm 4 mps 748 mmHg 89%
    18:00 +16°C° 0.4 mm 3 mps 748 mmHg 91%
    19:00 +16°C° 0 mm 3 mps 748 mmHg 92%
    20:00 +16°C° 0 mm 3 mps 748 mmHg 94%
    21:00 +16°C° 0 mm 2 mps 749 mmHg 95%
    22:00 +14°C° 0 mm 3 mps 749 mmHg 95%
    23:00 +14°C° 0 mm 3 mps 749 mmHg 94%
    Show more